Dati Storici

Data ora Umidita' aria (%) Temperatura aria (°C) Rad globale (W/m²) Gonioanemometro (°) Tacoanemometro (m/s) Pioggia (mm)
26-06-2020 10:50 58.4 % 25.605 -44.572 1.521 0 0
26-06-2020 10:40 58.8 % 26.352 -38.719 0.644 0 0
26-06-2020 10:30 59.4 % 25.354 -54.882 1.411 0 0
26-06-2020 10:20 56.4 % 25.311 -52.303 -0.031 0 0
26-06-2020 10:10 55.6 % 25.712 53.421 0.43 0 0
26-06-2020 10:00 57 % 25.002 5.644 -0.034 0 0
26-06-2020 09:50 59.5 % 25.165 297.05 -0.036 0 0
26-06-2020 09:40 61.1 % 24.828 95.457 -0.033 0 0
26-06-2020 09:30 61.9 % 24.166 119.375 -0.031 0 0
26-06-2020 09:20 62.6 % 24.823 198.158 1.124 0 0
26-06-2020 09:10 65 % 23.576 20.435 1.387 0 0
26-06-2020 09:00 67.6 % 23.583 65.949 0.953 0 0
26-06-2020 08:50 69.3 % 23.178 346.549 -0.029 0 0
26-06-2020 08:40 70.1 % 22.105 50.965 1.421 0 0
26-06-2020 08:30 71.9 % 22.636 34.359 0.953 0 0
26-06-2020 08:20 73.8 % 22.182 39.503 0.92 0 0
26-06-2020 08:10 74.8 % 21.693 340.748 -0.021 0 0
26-06-2020 08:00 77.5 % 21.297 52.572 0.013 0 0
26-06-2020 07:50 80.2 % 20.58 1.039 2.061 0 0
26-06-2020 07:40 83.6 % 19.578 47.05 1.383 0 0

I dati sono presentati in modo automatico a scopo informativo. In seguito a verifica i dati possono subire modifiche o essere invalidati e non riportati negli archivi definitivi.